Change the Weather History Date:

Wednesday, February 5, 2014

  Actual Average Record
Temperature  
Mean Temperature 70 °F 72 °F  
Max Temperature 75 °F 78 °F 84 °F (1978)
Min Temperature 65 °F 65 °F 56 °F (1986)
Degree Days  
Heating Degree Days 0 0  
Month to date heating degree days 0 0  
Since 1 July heating degree days 0 0  
Cooling Degree Days 5 7  
Month to date cooling degree days 25 35  
Year to date cooling degree days 221 244  
Growing Degree Days 19 (Base 50)    
Moisture  
Dew Point 69 °F    
Average Humidity 94    
Maximum Humidity 100    
Minimum Humidity 87    
Precipitation  
Precipitation 1.95 in 0.11 in 2.90 in (1950)
Month to date precipitation 2.37 0.58  
Year to date precipitation 4.08 4.33  
Snow  
Snow 0.00 in - - ()
Month to date snowfall 0.0  
Since 1 July snowfall 0.0  
Snow Depth 0.00 in    
Sea Level Pressure  
Sea Level Pressure 29.88 in    
Wind  
Wind Speed 10 mph (SSW)    
Max Wind Speed 22 mph    
Max Gust Speed 29 mph    
Visibility 6 miles    
Events Rain    
T = Trace of Precipitation, MM = Missing Value Source: NWS Daily Summary

Daily Weather History Graph

Daily Weather History Graph

Search for Another Location

Airport or City:

Trip Planner

Search our weather history database for the weather conditions in past years. The results will help you decide how hot, cold, wet, or windy it might be!

Date:

Astronomy

Feb. 05, 2014 Rise Set
Actual Time 7:13 AM HST 6:29 PM HST
Civil Twilight 6:50 AM HST 6:52 PM HST
Nautical Twilight 6:24 AM HST 7:18 PM HST
Astronomical Twilight 5:57 AM HST 7:45 PM HST
Moon 11:28 AM HST (2/5) No Moon Set
Length of Visible Light 12h 01m
Length of Day
11h 15m
Waxing Crescent, 41% of the Moon is Illuminated
Feb 5
Waxing Crescent
Feb 6
First Quarter
Feb 14
Full
Feb 22
Last Quarter
Feb 28
New

Hourly Weather History & Observations

Time (HST) Temp. Dew Point Humidity Pressure Visibility Wind Dir Wind Speed Gust Speed Precip Events Conditions
12:04 AM 71.6 °F 69.8 °F 94% 29.90 in 10.0 mi South 13.8 mph 25.3 mph 0.00 in   Overcast
12:53 AM 72.0 °F 69.1 °F 91% 29.88 in 10.0 mi South 10.4 mph - 0.00 in   Mostly Cloudy
1:16 AM 71.6 °F 69.8 °F 94% 29.88 in 10.0 mi South 12.7 mph - N/A   Overcast
1:35 AM 71.6 °F 69.8 °F 94% 29.87 in 7.0 mi South 12.7 mph - 0.02 in Rain Light Rain
1:53 AM 73.0 °F 70.0 °F 90% 29.86 in 10.0 mi South 10.4 mph - 0.02 in Rain Light Rain
2:46 AM 73.4 °F 69.8 °F 88% 29.84 in 10.0 mi SSE 18.4 mph 26.5 mph 0.01 in   Overcast
2:53 AM 73.0 °F 70.0 °F 90% 29.83 in 10.0 mi SSE 19.6 mph - 0.01 in   Overcast
3:35 AM 73.4 °F 69.8 °F 88% 29.84 in 10.0 mi SSE 13.8 mph - 0.00 in   Mostly Cloudy
3:53 AM 73.0 °F 70.0 °F 90% 29.84 in 10.0 mi South 15.0 mph - 0.00 in   Mostly Cloudy
4:39 AM 73.4 °F 69.8 °F 88% 29.84 in 10.0 mi South 13.8 mph 23.0 mph N/A   Mostly Cloudy
4:53 AM 73.0 °F 70.0 °F 90% 29.84 in 10.0 mi South 15.0 mph - N/A   Mostly Cloudy
5:14 AM 73.4 °F 69.8 °F 88% 29.84 in 10.0 mi SSE 15.0 mph - N/A   Mostly Cloudy
5:53 AM 73.0 °F 70.0 °F 90% 29.84 in 10.0 mi South 16.1 mph - 0.00 in   Mostly Cloudy
6:04 AM 73.4 °F 69.8 °F 88% 29.84 in 10.0 mi South 17.3 mph - N/A   Mostly Cloudy
6:22 AM 73.4 °F 71.6 °F 94% 29.85 in 10.0 mi South 16.1 mph 23.0 mph N/A   Mostly Cloudy
6:30 AM 73.4 °F 71.6 °F 94% 29.86 in 10.0 mi South 15.0 mph - N/A   Mostly Cloudy
6:53 AM 73.0 °F 70.0 °F 90% 29.86 in 10.0 mi South 15.0 mph 21.9 mph N/A   Mostly Cloudy
7:20 AM 73.4 °F 69.8 °F 88% 29.87 in 10.0 mi South 16.1 mph 23.0 mph N/A   Overcast
7:53 AM 73.9 °F 69.1 °F 85% 29.87 in 10.0 mi SSW 11.5 mph - N/A   Overcast
8:32 AM 73.4 °F 69.8 °F 88% 29.88 in 10.0 mi South 9.2 mph - N/A   Overcast
8:53 AM 73.9 °F 70.0 °F 87% 29.88 in 10.0 mi South 10.4 mph - N/A   Overcast
9:11 AM 73.4 °F 69.8 °F 88% 29.87 in 10.0 mi SSW 12.7 mph - N/A   Overcast
9:24 AM 73.4 °F 69.8 °F 88% 29.88 in 4.0 mi South 18.4 mph 25.3 mph 0.05 in Rain Rain
9:41 AM 73.4 °F 71.6 °F 94% 29.88 in 2.5 mi South 18.4 mph 27.6 mph 0.11 in Rain Rain
9:50 AM 71.6 °F 69.8 °F 94% 29.88 in 3.0 mi South 18.4 mph 26.5 mph 0.18 in Rain Rain
9:53 AM 73.0 °F 70.0 °F 90% 29.88 in 5.0 mi South 13.8 mph 26.5 mph 0.18 in Rain Light Rain
10:49 AM 73.4 °F 71.6 °F 94% 29.89 in 10.0 mi South 17.3 mph - 0.00 in Rain Light Rain
10:53 AM 73.9 °F 71.1 °F 91% 29.88 in 7.0 mi SSW 13.8 mph 24.2 mph 0.00 in Rain Rain
11:00 AM 73.4 °F 71.6 °F 94% 29.90 in 2.0 mi WSW 21.9 mph 28.8 mph 0.02 in Rain Heavy Rain
11:04 AM 71.6 °F 69.8 °F 94% 29.91 in 1.0 mi West 13.8 mph 28.8 mph 0.15 in Rain Heavy Rain
11:20 AM 69.8 °F 69.8 °F 100% 29.89 in 0.8 mi WSW 9.2 mph - 0.64 in Rain Heavy Rain
11:30 AM 69.8 °F 68.0 °F 94% 29.89 in 1.0 mi SW 9.2 mph - 0.79 in Rain Heavy Rain
11:37 AM 69.8 °F 69.8 °F 100% 29.89 in 0.8 mi SW 8.1 mph - 0.96 in Rain Heavy Rain
11:46 AM 69.8 °F 69.8 °F 100% 29.88 in 1.0 mi SW 8.1 mph - 1.11 in Rain Heavy Rain
11:53 AM 70.0 °F 70.0 °F 100% 29.88 in 1.5 mi SW 11.5 mph - 1.19 in Rain Heavy Rain
11:57 AM 69.8 °F 69.8 °F 100% 29.88 in 2.0 mi SW 8.1 mph - 0.01 in Rain Heavy Rain
12:12 PM 71.6 °F 69.8 °F 94% 29.88 in 2.0 mi SW 10.4 mph - 0.08 in Rain Light Rain
12:40 PM 71.6 °F 71.6 °F 100% 29.88 in 2.5 mi SW 4.6 mph - 0.16 in Rain Rain
12:50 PM 71.6 °F 69.8 °F 94% 29.89 in 1.8 mi South 5.8 mph - 0.20 in Rain Heavy Rain
12:51 PM 71.6 °F 69.8 °F 94% 29.89 in 1.8 mi SSW 4.6 mph - 0.20 in Rain Heavy Rain
12:53 PM 71.1 °F 70.0 °F 96% 29.88 in 2.0 mi SW 4.6 mph - 0.22 in Rain Heavy Rain
1:03 PM 71.6 °F 71.6 °F 100% 29.88 in 2.0 mi Variable 3.5 mph - 0.04 in Rain Light Rain
1:24 PM 71.6 °F 69.8 °F 94% 29.87 in 10.0 mi North 9.2 mph - 0.05 in Rain Light Rain
1:53 PM 71.1 °F 70.0 °F 96% 29.85 in 3.0 mi NE 5.8 mph - 0.08 in Rain Rain
2:04 PM 71.6 °F 69.8 °F 94% 29.85 in 3.0 mi NNE 6.9 mph - 0.03 in Rain Light Rain
2:11 PM 71.6 °F 69.8 °F 94% 29.85 in 2.0 mi North 5.8 mph - 0.03 in Rain Rain
2:40 PM 71.6 °F 69.8 °F 94% 29.85 in 7.0 mi ENE 5.8 mph - 0.10 in   Overcast
2:50 PM 71.6 °F 71.6 °F 100% 29.85 in 7.0 mi NE 5.8 mph - 0.10 in   Overcast
2:53 PM 72.0 °F 71.1 °F 97% 29.85 in 7.0 mi NE 5.8 mph - 0.10 in   Overcast
3:28 PM 69.8 °F 69.8 °F 100% 29.86 in 7.0 mi NE 5.8 mph - 0.01 in   Overcast
3:53 PM 69.1 °F 69.1 °F 100% 29.86 in 7.0 mi NE 12.7 mph - 0.01 in Rain Light Rain
4:25 PM 66.2 °F 66.2 °F 100% 29.88 in 1.5 mi NNE 11.5 mph - 0.04 in Rain Heavy Rain
4:53 PM 66.9 °F 66.9 °F 100% 29.88 in 1.5 mi NNE 12.7 mph - 0.08 in Rain Rain
4:55 PM 66.2 °F 66.2 °F 100% 29.89 in 1.5 mi NNE 12.7 mph - 0.00 in Rain Light Rain
5:18 PM 66.2 °F 66.2 °F 100% 29.90 in 1.5 mi NNE 15.0 mph - 0.00 in Rain Light Rain
5:20 PM 66.2 °F 66.2 °F 100% 29.90 in 2.5 mi NNE 15.0 mph - 0.00 in Rain Light Rain
5:53 PM 66.9 °F 66.0 °F 97% 29.91 in 2.5 mi NNE 12.7 mph - 0.01 in Rain Light Rain
6:00 PM 66.2 °F 66.2 °F 100% 29.91 in 2.0 mi NNE 12.7 mph - 0.00 in Rain Light Rain
6:10 PM 66.2 °F 66.2 °F 100% 29.91 in 2.5 mi North 8.1 mph - 0.01 in Rain Rain
6:22 PM 66.2 °F 66.2 °F 100% 29.92 in 4.0 mi North 5.8 mph - 0.02 in Rain Light Rain
6:34 PM 66.2 °F 66.2 °F 100% 29.93 in 4.0 mi North 8.1 mph - 0.04 in Rain Light Rain
6:53 PM 66.0 °F 66.0 °F 100% 29.92 in 4.0 mi North 9.2 mph - 0.04 in Rain Light Rain
7:14 PM 66.2 °F 66.2 °F 100% 29.94 in 4.0 mi NNW 4.6 mph - 0.00 in   Overcast
7:53 PM 66.0 °F 66.0 °F 100% 29.94 in 4.0 mi North 8.1 mph - 0.01 in Rain Light Rain
8:53 PM 66.0 °F 64.9 °F 96% 29.96 in 4.0 mi North 6.9 mph - 0.00 in   Overcast
9:53 PM 64.9 °F 64.9 °F 100% 29.97 in 4.0 mi North 4.6 mph - N/A   Overcast
10:53 PM 64.9 °F 64.9 °F 100% 29.98 in 4.0 mi NNW 4.6 mph - N/A   Overcast
11:32 PM 64.4 °F 64.4 °F 100% 29.99 in 7.0 mi NW 4.6 mph - N/A   Overcast
11:53 PM 66.0 °F 66.0 °F 100% 29.99 in 7.0 mi NNW 3.5 mph - N/A   Overcast